AirNav   Everest Fuels
 
 1150 users online  

03IL Wix Airport
Monee, Illinois, USA

GOING TO MONEE?


FAA INFORMATION EFFECTIVE 19 MAY 2022

Location

FAA Identifier: 03IL
Lat/Long: 41-24-08.1190N 087-49-00.1680W
41-24.135317N 087-49.002800W
41.4022553,-87.8167133
(estimated)
Elevation: 750 ft. / 229 m (estimated)
Variation: 01W (1985)
From city: 6 miles SW of MONEE, IL
Time zone: UTC -5 (UTC -6 during Standard Time)
Zip code: 60449

Airport Operations

Airport use: Private use, PERSONAL USE.
Activation date: 04/1990
Control tower: no
ARTCC: CHICAGO CENTER
FSS: KANKAKEE FLIGHT SERVICE STATION
Attendance: UNATNDD
Wind indicator: yes
Segmented circle: yes

Airport Communications

WX AWOS-AV at C56 (6 nm E): 119.125 (708-534-5256)
WX AWOS-3PT at IGQ (15 nm NE): 119.275 (708-889-6319)
WX AWOS-3 at JOT (18 nm NW): 119.975 (815-730-9560)
WX AWOS-3 at LOT (18 nm NW): 118.525 (815-588-4802)
WX AWOS-3 at IKK (20 nm S): 128.475 (815-939-4044)

Nearby radio navigation aids

VOR radial/distance  VOR name  Freq  Var
EONr350/8.0PEOTONE VORTAC113.2002E
CGTr238/12.8CHICAGO HEIGHTS VORTAC114.2002E
JOTr109/24.2JOLIET VOR/DME112.3002E
DPAr139/37.8DUPAGE VOR/DME108.4002E

Airport Services

Runway Information

Runway 18/36

Dimensions: 2600 x 105 ft. / 792 x 32 m
Surface: turf
RUNWAY 18  RUNWAY 36
Traffic pattern: rightleft
Obstructions: none40 ft. trees, 600 ft. from runway

Airport Ownership and Management from official FAA records

Ownership: Privately-owned
Owner: H. WIX, M.D.
1018 DEER TRAIL
BOURBONNAIS, IL 60914
Phone 815-216-0186
Manager: H. WIX, M.D.
1018 DEER TRAIL
BOURBONNAIS, IL 60914
Phone 815-216-0186

Airport Operational Statistics

Aircraft based on the field: 1
Single engine airplanes: 1
    

Additional Remarks

FOR CD CTC CHICAGO ARTCC AT 630-906-8921.

Instrument Procedures

There are no published instrument procedures at 03IL.

Some nearby airports with instrument procedures:

C56 - Bult Field Airport (6 nm E)
KIGQ - Lansing Municipal Airport (15 nm NE)
KLOT - Lewis University Airport (18 nm NW)
KIKK - Greater Kankakee Airport (20 nm S)
05C - Griffith-Merrillville Airport (20 nm E)
 
Loc | Ops | Rwys | IFR | FBO | Links
Com | Nav | Svcs | Stats | Notes
Area around 03IL (Wix Airport)
 
Road maps at: MapQuest Bing Google
 
Aerial photo
No photo
 
Sectional chart

 
Airport distance calculator
Flying to Wix Airport? Find the distance to fly.

From to 03IL

Sunrise and sunset
Times for 27-May-2022
 Local
(UTC-5)
 Zulu
(UTC)
Morning civil twilight04:5109:51
Sunrise05:2410:24
Sunset20:1301:13
Evening civil twilight20:4601:46

Current date and time
Zulu (UTC)  27-May-2022 23:07:29
Local (UTC-5)  27-May-2022 18:07:29
 
METAR
KIGQ 
15nm NE 
272255Z AUTO 36006G14KT 330V030 10SM OVC047 14/10 A2988 RMK AO2 T01370099
KJOT 
17nm NW 
272255Z AUTO 06005KT 10SM OVC023 16/13 A2988 RMK AO2 T01580125
KLOT 
18nm NW 
272250Z AUTO 04005KT 10SM BKN023 OVC028 15/13 A2988 RMK AO2 T01450125
KIKK 
20nm S 
272256Z AUTO 01004KT 10SM OVC022 15/13 A2989 RMK AO2
KGYY 
22nm NE 
272245Z 34015KT 10SM OVC044 13/10 A2988
KMDW 
23nm N 
272253Z 01009KT 10SM FEW030 BKN048 18/10 A2986 RMK AO2 SLP111 T01780100
KC09 
27nm W 
272255Z AUTO 35005KT 10SM OVC026 16/13 A2988 RMK AO2 T01600130
TAF
KGYY 
22nm NE 
272102Z 2721/2818 36012G20KT P6SM OVC015 FM280000 01006KT P6SM BKN020 FM280300 27005KT P6SM FEW020 TEMPO 2808/2812 4SM BR FM281500 19011KT P6SM SCT150
KMDW 
23nm N 
272102Z 2721/2824 01013G21KT P6SM OVC020 FM280000 01006KT P6SM BKN020 FM280300 29005KT P6SM FEW020 FM281500 19011KT P6SM SCT150
NOTAMs
Click for the latest NOTAMs
NOTAMs are issued by the DoD/FAA and will open in a separate window not controlled by AirNav.

 

 
 

Would you like to see your business listed on this page?

 If your business provides an interesting product or service to pilots, flight crews, aircraft, or users of the Wix Airport, you should consider listing it here.  To start the listing process, click on the button below
 
Add a business
 

Other Pages about Wix Airport

Update a link
 
Copyright © AirNav, LLC. All rights reserved. Privacy Policy  Contact